| time (UTC) | temp C | wind direction | speed KPH | gust KPH | rain 1hr cm | rain 24hr cm | rain mn cm | humidity % | barometer mb |
| 20260504190033 | 27 | 143 | 1.6 | 14.5 | 0.00 | 0.00 | 0.00 | 55 | 1014.0 |
| 20260504185023 | 27 | 163 | 3.2 | 11.3 | 0.00 | 0.00 | 0.00 | 53 | 1014.0 |
| 20260504184114 | 28 | 174 | 3.2 | 9.7 | 0.00 | 0.00 | 0.00 | 52 | 1014.3 |
| 20260504183104 | 28 | 152 | 1.6 | 12.9 | 0.00 | 0.00 | 0.00 | 53 | 1014.5 |
| 20260504182054 | 27 | 184 | 3.2 | 11.3 | 0.00 | 0.00 | 0.00 | 53 | 1014.4 |
| 20260504181044 | 27 | 112 | 3.2 | 9.7 | 0.00 | 0.00 | 0.00 | 55 | 1014.5 |
| 20260504180034 | 27 | 307 | 1.6 | 11.3 | 0.00 | 0.00 | 0.00 | 56 | 1014.5 |
| 20260504175023 | 27 | 173 | 3.2 | 12.9 | 0.00 | 0.00 | 0.00 | 54 | 1014.9 |
| 20260504174115 | 26 | 191 | 3.2 | 6.4 | 0.00 | 0.00 | 0.00 | 56 | 1015.0 |
| 20260504173105 | 27 | 14 | 1.6 | 14.5 | 0.00 | 0.00 | 0.00 | 55 | 1015.0 |
| 20260504172054 | 26 | 19 | 1.6 | 6.4 | 0.00 | 0.00 | 0.00 | 57 | 1015.2 |
| 20260504171044 | 26 | 152 | 4.8 | 14.5 | 0.00 | 0.00 | 0.00 | 55 | 1015.6 |
| 20260504151046 | 24 | 185 | 4.8 | 12.9 | 0.00 | 0.00 | 0.00 | 62 | 1016.3 |
| 20260504141046 | 21 | 227 | 3.2 | 9.7 | 0.00 | 0.00 | 0.00 | 65 | 1016.2 |
| 20260504081051 | 15 | 0.0 | 0.0 | 0.00 | 0.00 | 0.00 | 77 | 1016.9 | |
| 20260504050123 | 17 | 0.0 | 0.0 | 0.00 | 0.00 | 0.00 | 68 | 1018.8 | |
| 20260504045033 | 17 | 0.0 | 0.0 | 0.00 | 0.00 | 0.00 | 68 | 1018.8 | |
| 20260504044023 | 17 | 0.0 | 0.0 | 0.00 | 0.00 | 0.00 | 68 | 1018.9 | |
| 20260504043114 | 17 | 0.0 | 0.0 | 0.00 | 0.00 | 0.00 | 68 | 1019.0 | |
| 20260504042104 | 17 | 0.0 | 0.0 | 0.00 | 0.00 | 0.00 | 67 | 1018.9 | |
| 20260504041054 | 18 | 0.0 | 0.0 | 0.00 | 0.00 | 0.00 | 66 | 1019.1 | |
| 20260504040044 | 18 | 129 | 0.0 | 1.6 | 0.00 | 0.00 | 0.00 | 64 | 1019.1 |
| 20260504035034 | 18 | 0.0 | 1.6 | 0.00 | 0.00 | 0.00 | 62 | 1018.9 | |
| 20260504034024 | 18 | 250 | 0.0 | 3.2 | 0.00 | 0.00 | 0.00 | 61 | 1019.0 |
| 20260504033135 | 19 | 164 | 1.6 | 3.2 | 0.00 | 0.00 | 0.00 | 60 | 1019.0 |
| 20260504032105 | 19 | 125 | 0.0 | 3.2 | 0.00 | 0.00 | 0.00 | 60 | 1018.9 |
| 20260504031055 | 20 | 158 | 0.0 | 3.2 | 0.00 | 0.00 | 0.00 | 59 | 1018.7 |
| 20260504030045 | 20 | 163 | 1.6 | 6.4 | 0.00 | 0.00 | 0.00 | 57 | 1018.9 |
| 20260504025055 | 20 | 186 | 1.6 | 9.7 | 0.00 | 0.00 | 0.00 | 56 | 1018.7 |
| 20260504024045 | 20 | 99 | 1.6 | 3.2 | 0.00 | 0.00 | 0.00 | 56 | 1018.6 |
| 20260504023115 | 20 | 116 | 0.0 | 3.2 | 0.00 | 0.00 | 0.00 | 55 | 1018.6 |
| 20260504022106 | 20 | 140 | 0.0 | 1.6 | 0.00 | 0.00 | 0.00 | 54 | 1018.6 |
| 20260504021056 | 21 | 172 | 1.6 | 6.4 | 0.00 | 0.00 | 0.00 | 52 | 1018.3 |
| 20260504020045 | 21 | 224 | 0.0 | 4.8 | 0.00 | 0.00 | 0.00 | 51 | 1018.3 |
| 20260504015035 | 21 | 154 | 1.6 | 11.3 | 0.00 | 0.00 | 0.00 | 49 | 1018.2 |
| 20260504014045 | 22 | 320 | 1.6 | 9.7 | 0.00 | 0.00 | 0.00 | 49 | 1018.2 |
| 20260504013136 | 22 | 351 | 3.2 | 9.7 | 0.00 | 0.00 | 0.00 | 48 | 1018.2 |
| 20260504012126 | 22 | 186 | 1.6 | 6.4 | 0.00 | 0.00 | 0.00 | 48 | 1018.1 |
| 20260504011056 | 22 | 165 | 1.6 | 9.7 | 0.00 | 0.00 | 0.00 | 48 | 1018.1 |
| 20260504010046 | 22 | 153 | 3.2 | 6.4 | 0.00 | 0.00 | 0.00 | 46 | 1018.2 |
| 20260504005036 | 23 | 188 | 1.6 | 4.8 | 0.00 | 0.00 | 0.00 | 46 | 1018.0 |
| 20260504004026 | 23 | 124 | 1.6 | 11.3 | 0.00 | 0.00 | 0.00 | 45 | 1018.1 |
| 20260504003016 | 23 | 191 | 1.6 | 9.7 | 0.00 | 0.00 | 0.00 | 45 | 1018.2 |
| 20260504002107 | 23 | 150 | 3.2 | 12.9 | 0.00 | 0.00 | 0.00 | 44 | 1018.1 |
| 20260504001057 | 24 | 167 | 3.2 | 12.9 | 0.00 | 0.00 | 0.00 | 42 | 1018.1 |
| 20260504000047 | 25 | 337 | 0.0 | 3.2 | 0.00 | 0.00 | 0.00 | 40 | 1018.0 |
| 20260503235037 | 25 | 176 | 1.6 | 6.4 | 0.00 | 0.00 | 0.00 | 39 | 1017.9 |
| 20260503234027 | 25 | 146 | 1.6 | 6.4 | 0.00 | 0.00 | 0.00 | 37 | 1018.0 |
| 20260503233017 | 25 | 149 | 0.0 | 6.4 | 0.00 | 0.00 | 0.00 | 36 | 1018.2 |
| 20260503232108 | 25 | 147 | 3.2 | 9.7 | 0.00 | 0.00 | 0.00 | 35 | 1018.3 |
| 20260503231058 | 25 | 272 | 1.6 | 6.4 | 0.00 | 0.00 | 0.00 | 35 | 1018.4 |
| 20260503230108 | 26 | 146 | 1.6 | 11.3 | 0.00 | 0.00 | 0.00 | 34 | 1018.4 |
| 20260503225038 | 26 | 313 | 1.6 | 3.2 | 0.00 | 0.00 | 0.00 | 34 | 1018.4 |
| 20260503224028 | 26 | 100 | 3.2 | 6.4 | 0.00 | 0.00 | 0.00 | 34 | 1018.5 |
| 20260503223017 | 26 | 220 | 1.6 | 4.8 | 0.00 | 0.00 | 0.00 | 35 | 1018.7 |
| 20260503222108 | 26 | 160 | 3.2 | 6.4 | 0.00 | 0.00 | 0.00 | 34 | 1018.9 |
| 20260503221058 | 26 | 192 | 1.6 | 4.8 | 0.00 | 0.00 | 0.00 | 34 | 1019.0 |
| 20260503220048 | 26 | 168 | 3.2 | 6.4 | 0.00 | 0.00 | 0.00 | 33 | 1019.0 |
| 20260503215038 | 26 | 355 | 1.6 | 6.4 | 0.00 | 0.00 | 0.00 | 35 | 1019.1 |
| 20260503214028 | 26 | 101 | 1.6 | 3.2 | 0.00 | 0.00 | 0.00 | 33 | 1019.0 |
| 20260503213018 | 27 | 112 | 0.0 | 6.4 | 0.00 | 0.00 | 0.00 | 33 | 1019.4 |
| 20260503212109 | 27 | 225 | 1.6 | 6.4 | 0.00 | 0.00 | 0.00 | 33 | 1019.6 |
| 20260503211059 | 27 | 201 | 1.6 | 9.7 | 0.00 | 0.00 | 0.00 | 33 | 1019.6 |
| 20260503210049 | 27 | 285 | 3.2 | 6.4 | 0.00 | 0.00 | 0.00 | 34 | 1019.7 |
| 20260503205039 | 27 | 41 | 3.2 | 4.8 | 0.00 | 0.00 | 0.00 | 35 | 1019.9 |
| 20260503204029 | 27 | 103 | 1.6 | 3.2 | 0.00 | 0.00 | 0.00 | 34 | 1020.1 |
| 20260503203019 | 27 | 96 | 1.6 | 3.2 | 0.00 | 0.00 | 0.00 | 34 | 1020.3 |
| 20260503202110 | 27 | 223 | 1.6 | 4.8 | 0.00 | 0.00 | 0.00 | 34 | 1020.3 |
| 20260503201100 | 27 | 221 | 3.2 | 6.4 | 0.00 | 0.00 | 0.00 | 34 | 1020.5 |
| 20260503200050 | 27 | 185 | 0.0 | 3.2 | 0.00 | 0.00 | 0.00 | 35 | 1020.7 |
| 20260503195040 | 27 | 90 | 1.6 | 4.8 | 0.00 | 0.00 | 0.00 | 36 | 1020.9 |
| 20260503194030 | 27 | 239 | 1.6 | 6.4 | 0.00 | 0.00 | 0.00 | 34 | 1021.0 |
| 20260503193020 | 27 | 146 | 1.6 | 4.8 | 0.00 | 0.00 | 0.00 | 35 | 1021.2 |
| 20260503192151 | 27 | 81 | 1.6 | 6.4 | 0.00 | 0.00 | 0.00 | 35 | 1021.3 |
| 20260503191101 | 27 | 105 | 1.6 | 4.8 | 0.00 | 0.00 | 0.00 | 37 | 1021.4 |